Groton, CT

8:13 AM EST on February 21, 2017 (GMT -0500)
Groton-New London

Weather History for KGON - April, 2013

Change the Weather History Date:

Monday, April 1, 2013

  Actual Average Record
Temperature  
Mean Temperature 44 °F -  
Max Temperature 53 °F 52 °F 66 °F (1975)
Min Temperature 36 °F 33 °F 16 °F (1964)
Degree Days  
Heating Degree Days 20    
Moisture  
Dew Point 41 °F    
Average Humidity 87    
Maximum Humidity 100    
Minimum Humidity 42    
Precipitation  
Precipitation 0.00 in - - ()
Sea Level Pressure  
Sea Level Pressure 29.65 in    
Wind  
Wind Speed 11 mph (WSW)    
Max Wind Speed 18 mph    
Max Gust Speed 33 mph    
Visibility 5 miles    
Events Fog , Rain    
Averages and records for this station are not official NWS values.
T = Trace of Precipitation, MM = Missing Value Source: NWS Daily Summary

Daily Weather History Graph

Daily Weather History Graph

Search for Another Location

Airport or City:

Trip Planner

Search our weather history database for the weather conditions in past years. The results will help you decide how hot, cold, wet, or windy it might be!

Date:

Astronomy

Apr. 01, 2013 Rise Set
Actual Time 6:30 AM EDT 7:13 PM EDT
Civil Twilight 6:03 AM EDT 7:41 PM EDT
Nautical Twilight 5:30 AM EDT 8:14 PM EDT
Astronomical Twilight 4:56 AM EDT 8:48 PM EDT
Moon 12:21 AM EDT (4/1) 10:11 AM EDT (4/1)
Length of Visible Light 13h 38m
Length of Day
12h 42m
Waning Gibbous, 67% of the Moon is Illuminated
Apr 1
Waning Gibbous
Apr 3
Last Quarter
Apr 10
New
Apr 18
First Quarter
Apr 25
Full

Hourly Weather History & Observations

Time (EDT) Temp. Windchill Dew Point Humidity Pressure Visibility Wind Dir Wind Speed Gust Speed Precip Events Conditions
12:07 AM 46.4 °F 39.2 °F 46.4 °F 100% 29.64 in 2.5 mi ESE 18.4 mph 33.4 mph 0.00 in Rain Light Rain
12:46 AM 44.6 °F 38.1 °F 44.6 °F 100% 29.61 in 1.5 mi ESE 13.8 mph - 0.00 in   Overcast
12:56 AM 45.0 °F 40.6 °F 45.0 °F 100% 29.60 in 1.0 mi SE 8.1 mph - 0.00 in   Overcast
1:05 AM 44.6 °F 40.7 °F 44.6 °F 100% 29.59 in 0.5 mi SSE 6.9 mph - N/A Fog Fog
1:17 AM 44.6 °F 40.7 °F 44.6 °F 100% 29.59 in 0.2 mi SSW 6.9 mph - 0.00 in Fog , Rain Light Rain
1:29 AM 44.6 °F 39.7 °F 44.6 °F 100% 29.60 in 0.2 mi SW 9.2 mph - 0.00 in Fog , Rain Light Rain
1:44 AM 44.6 °F 40.2 °F 44.6 °F 100% 29.59 in 0.5 mi SW 8.1 mph - 0.00 in Fog Fog
1:51 AM 44.6 °F 40.2 °F - N/A% 29.59 in 0.2 mi SW 8.1 mph - 0.00 in Fog Fog
1:56 AM 44.6 °F 39.7 °F - N/A% 29.59 in 0.5 mi SW 9.2 mph - N/A Fog Fog
2:06 AM 44.6 °F 40.2 °F 44.6 °F 100% 29.59 in 0.2 mi SW 8.1 mph - N/A Fog Fog
2:13 AM 44.6 °F 40.2 °F 44.6 °F 100% 29.59 in 0.2 mi SW 8.1 mph - N/A Fog Fog
2:25 AM 44.6 °F 38.8 °F 44.6 °F 100% 29.59 in 0.2 mi SW 11.5 mph - N/A Fog Fog
2:34 AM 44.6 °F 39.2 °F 44.6 °F 100% 29.60 in 0.5 mi WSW 10.4 mph - N/A Fog Fog
2:47 AM 44.6 °F 39.2 °F 44.6 °F 100% 29.61 in 2.0 mi West 10.4 mph 18.4 mph N/A   Overcast
2:56 AM 46.0 °F 40.2 °F 46.0 °F 100% 29.60 in 5.0 mi WSW 12.7 mph 20.7 mph N/A   Overcast
3:38 AM 44.6 °F 39.7 °F 44.6 °F 100% 29.62 in 2.5 mi WSW 9.2 mph - N/A   Overcast
3:47 AM 44.6 °F 40.2 °F 44.6 °F 100% 29.63 in 5.0 mi WSW 8.1 mph - N/A   Overcast
3:56 AM 45.0 °F 41.2 °F 45.0 °F 100% 29.63 in 6.0 mi West 6.9 mph - N/A   Overcast
4:09 AM 44.6 °F 39.7 °F 44.6 °F 100% 29.63 in 7.0 mi West 9.2 mph - N/A   Overcast
4:56 AM 44.1 °F 40.8 °F 44.1 °F 100% 29.65 in 6.0 mi WSW 5.8 mph - N/A   Overcast
5:56 AM 45.0 °F 41.2 °F 44.1 °F 97% 29.65 in 10.0 mi WNW 6.9 mph - N/A   Overcast
6:56 AM 45.0 °F 40.6 °F 43.0 °F 93% 29.68 in 10.0 mi West 8.1 mph - N/A   Mostly Cloudy
7:07 AM 44.6 °F 43.1 °F 42.8 °F 93% 29.68 in 10.0 mi West 3.5 mph - N/A   Scattered Clouds
7:30 AM 42.8 °F 39.3 °F 42.8 °F 100% 29.68 in 6.0 mi WSW 5.8 mph - N/A   Mostly Cloudy
7:49 AM 42.8 °F 39.3 °F 42.8 °F 100% 29.68 in 5.0 mi WSW 5.8 mph - N/A   Mostly Cloudy
7:56 AM 44.1 °F 40.8 °F 44.1 °F 100% 29.68 in 7.0 mi WSW 5.8 mph - N/A   Scattered Clouds
8:11 AM 46.4 °F 42.4 °F 44.6 °F 93% 29.68 in 8.0 mi WSW 8.1 mph - N/A   Scattered Clouds
8:56 AM 46.4 °F 42.9 °F 42.8 °F 87% 29.67 in 7.0 mi SW 6.9 mph - N/A   Clear
9:56 AM 48.0 °F - 43.0 °F 83% 29.68 in 6.0 mi SW 10.4 mph - N/A   Haze
10:56 AM 48.2 °F - 42.8 °F 82% 29.68 in 6.0 mi SW 11.5 mph - N/A   Haze
11:56 AM 51.1 °F - 42.1 °F 71% 29.66 in 8.0 mi SSW 11.5 mph - N/A   Clear
12:56 PM 50.0 °F - 42.8 °F 76% 29.65 in 5.0 mi SSW 10.4 mph - N/A   Haze
1:56 PM 51.1 °F - 43.0 °F 74% 29.63 in 5.0 mi SW 15.0 mph - N/A   Haze
2:56 PM 52.0 °F - 42.1 °F 69% 29.61 in 6.0 mi SW 13.8 mph 19.6 mph N/A   Haze
3:56 PM 51.8 °F - 42.8 °F 71% 29.59 in 6.0 mi SW 12.7 mph - N/A   Haze
4:56 PM 50.0 °F - 42.1 °F 74% 29.62 in 6.0 mi SW 15.0 mph 18.4 mph N/A   Haze
5:37 PM 51.8 °F - 42.8 °F 71% 29.63 in 4.0 mi West 16.1 mph 25.3 mph 0.00 in Rain Light Rain
5:52 PM 44.6 °F 37.2 °F 39.2 °F 81% 29.66 in 6.0 mi NNW 17.3 mph 27.6 mph 0.00 in Rain Light Rain
5:56 PM 44.1 °F 36.2 °F 39.0 °F 82% 29.67 in 6.0 mi NNW 18.4 mph 26.5 mph 0.00 in Rain Light Rain
6:56 PM 42.1 °F 33.6 °F 34.0 °F 73% 29.71 in 10.0 mi NW 18.4 mph 24.2 mph 0.00 in Rain Light Rain
7:56 PM 41.0 °F 33.5 °F 30.9 °F 67% 29.74 in 10.0 mi NNW 13.8 mph 19.6 mph 0.00 in   Overcast
8:56 PM 39.9 °F 32.5 °F 27.0 °F 60% 29.76 in 10.0 mi NNW 12.7 mph - N/A   Clear
9:56 PM 37.9 °F 28.9 °F 19.9 °F 48% 29.81 in 10.0 mi NNW 16.1 mph 25.3 mph N/A   Clear
10:56 PM 37.0 °F 29.8 °F 16.0 °F 42% 29.82 in 10.0 mi NW 10.4 mph 23.0 mph N/A   Clear
11:56 PM 36.0 °F 28.0 °F 15.1 °F 43% 29.84 in 10.0 mi NW 11.5 mph 19.6 mph N/A   Clear